Location: Ulm
(48.3980°N, 9.9777°E)
Time: 09:20:22
(UTC+01:00)

OTV 5 (USA 277) - Visible Passes

Search period start: 22 January 2018 00:00
Search period end: 01 February 2018 00:00
Orbit: 404 x 417 km, 43.0° (Epoch: 07 September)

Date Brightness Start Highest point End Pass type
(mag) Time Alt. Az. Time Alt. Az. Time Alt. Az.
23 Jan ? 19:17:25 10° SSW 19:18:11 13° S 19:18:11 13° S visible
24 Jan ? 18:27:20 10° S 18:28:39 12° SSE 18:29:40 11° SE visible
24 Jan ? 20:02:22 10° SW 20:02:26 10° SW 20:02:26 10° SW visible
25 Jan ? 19:11:35 10° SW 19:13:51 23° S 19:13:51 23° S visible
26 Jan ? 18:20:54 10° SSW 18:23:25 20° SSE 18:25:15 13° ESE visible
26 Jan ? 19:57:11 10° WSW 19:58:01 16° SW 19:58:01 16° SW visible
27 Jan ? 19:06:16 10° WSW 19:09:16 30° S 19:09:24 30° SSE visible
28 Jan ? 18:15:23 10° SW 18:18:19 27° S 18:20:46 13° ESE visible
28 Jan ? 19:52:11 10° WSW 19:53:32 20° SW 19:53:32 20° SW visible
29 Jan ? 19:01:10 10° WSW 19:04:14 32° S 19:04:55 29° SSE visible
30 Jan ? 18:10:12 10° WSW 18:13:15 32° S 18:16:19 10° ESE visible
30 Jan ? 19:47:20 10° WSW 19:49:06 20° SW 19:49:06 20° SW visible
31 Jan ? 18:56:15 10° WSW 18:59:11 28° S 19:00:34 20° SSE visible
